Virtual Norwegian is not affiliated with Norwegian Air Shuttle in any way.
If you are looking for the real "Norwegian", or you wish to book Norwegian flights, please visit Norwegian.com


We use cookies to ensure you get the best experience on our website.   ACCEPT

LICC - CTA - Catania (Catania Fontanarossa)

General Info Alternate Airport
ICAO: LICC Elevation: 39 ft ICAO: LICJ
IATA: CTA Country: Italy IATA: PMO
City: Catania Charts: Log in to view charts City: Palermo
Name: Catania Fontanarossa Hub: No Name Palermo
General Info
ICAO: LICC
IATA: CTA
City: Catania
Name: Catania Fontanarossa
Elevation: 39 ft
Country: Italy
Charts: Log in to view charts
Hub: No
 
Alternate Airport
ICAO: LICJ
IATA: PMO
City: Palermo
Name: Palermo

Weather
211420Z VRB02KT 9999 FEW020TCU SCT050 23/19 Q1015
Weather
211420Z VRB02KT 9999 FEW020TCU SCT050 23/19 Q1015

Runway Info
08
Length ILS/LOC Course
2436 m 109.90 082
26
Length ILS/LOC Heading
2436 m N/A 264

NOTAMs
NOTAMs currently unavailable.
NOTAMs
NOTAMs currently unavailable

Route map
Airport
Airport (hub)